Location: Sluknov
(51.0170°N, 14.4670°E)
Time: 10:47:50
(UTC+01:00)

ISS - Pass Details

Date: 17 February 2026
Orbit: 416 x 426 km, 51.6° (Epoch: 10 March)

Event Time Altitude Azimuth Distance (km) Brightness Sun altitude
Exits shadow 05:39:03 20° 219° (SW) 1,022 -2.2 -15.1°
Maximum altitude 05:41:01 45° 154° (SSE) 581 -2.9 -14.8°
Drops below altitude 10° 05:44:14 10° 81° (E) 1,494 0.4 -14.3°
Sets 05:46:23 0° 75° (ENE) 2,359 1.6 -14.0°
